DECAYED

FREGAT DEB, 45909 (Decayed)

Orbit data source: Space-Track

FREGAT DEB, 45909 was space debris in LEO originally from a launch on Mon, 18 Jul 2011 UTC launched from the Tyuratam Missile And Space Complex (TTMTR). Debris objects in space refer to the collection of defunct objects orbiting the Earth. Examples of debris include non-operational satellites, rocket bodies, and fragments generated from explosions, collisions, or faulty payload assembly.

Not visible in the next 10 days
Identifier
45909, 2011-037EE
Orbit
Decayed
Country
Flag of CISCIS
Related business
Manufacturer
Lavochkin
Mission
Decayed spacecraft
Bus & Motor
Unknown
Mass
Unknown
Launch date (UTC)
2011-07-18 (14 years ago)
Launch vehicle
Unknown
Launch site
Tyuratam Missile And Space Complex (TTMTR)
Object type
Payload
Rocket body
Debris
Shape & HBR
Unknown
Radar Cross Section
Small (<0.1 m²)

Expand to show TLE details & history
Last TLE update: 1 year ago

TLE from 1 year ago
0 FREGAT DEB
1 45909U 11037EE  24177.66112808  .06291726  50178-1  28970-1 0  9994
2 45909  51.2844 343.0217 0046957  86.3952 274.2415 15.85688654175012
Epoch: 2024-06-25T15:52Z
TLE epoch observation values (Epoch: 2024-06-25T15:52:01.466Z)
Latitude
-0.00005°
Longitude
-169.26266°
Altitude
312.922 km
Speed
7.723 km/s
True Right ascension
22h 52m 05s
True Declination
0° 00' 00"
Sunlit
Object was in full shadow at epoch
Visualization orbit readout
Latitude
Unknown
Longitude
Unknown
Altitude
Unknown
Speed
Unknown
Apparent Right ascension
Unknown
Apparent Declination
Unknown
Sunlit
N/A
Visualization observer readout
Local Sidereal Time
19:32:00
Azimuth
Unknown
Elevation
Unknown
Doppler factor
Unknown
Orbital elements
Apogee altitude
346.39 km
Perigee altitude
283.533 km
Semi-major axis
6,693.099 km
Eccentricity
0.0047
Inclination
51.2844°
RAAN
343.0217°
Arg. of periapsis
86.3952°
True anomaly
273.70466°
Mean anomaly
274.2415°
Eccentric anomaly
273.9731°
Mean motion
3.96371 °/min
Orbital period
90.82 mins
BSTAR
0.02897
Loading maneuver chart data...
Computing Atmospheric mass density...
Loading historical data...
Loading historical data...
Loading historical data...
Loading historical data...
Loading historical data...
Loading historical data...
Loading historical data...

Documentation

Showing up to 5 results
|